STARLINK-1606, 46144

Orbit data source: Space-Track

STARLINK-1606, 46144 is a payload satellite owned by SpaceX/Seattle (US) in LEO that was launched on Tue, 18 Aug 2020 UTC via an FALCON 9 launch vehicle from the Air Force Eastern Test Range (AFETR). Payload-class satellites include a variety of spacecraft equipped with specific instruments for various scientific and technological missions. These include communications satellites like Starlink; space stations such as the ISS; scientific satellites like the Hubble; Earth observation satellites from companies like Planet Labs, Umbra, and HawkEye 360; GPS; miniature CubeSats for education and research; and military/defense satellites.

Loading next visibility...
Identifier
46144, 2020-057AD
Orbit
LEO
Country
Flag of USUS
Related business
Manufacturer
SpaceX/Seattle
Mission
Partially operational Commercial Communications
Bus & Motor
STARLINK, Unknown motor
Mass
260 kg wet, ~248 kg dry
Launch date (UTC)
2020-08-18 (6 years ago)
Launch vehicle
FALCON 9
Launch site
Air Force Eastern Test Range (AFETR)
Object type
Payload
Rocket body
Debris
Shape & HBR
Box + 1 Pan, 10.1 m
Radar Cross Section
13.562 m², Large (>1 m²)

Expand to show TLE details & history
Last TLE update: 2 hours ago

TLE from 2 hours ago
0 STARLINK-1606
1 46144U 20057AD  26123.25003471  .00098848  00000-0  58563-3 0  9996
2 46144  53.0409 346.4403 0003978 175.5021 320.1864 15.77301365  5719
Epoch: 2026-05-03T06:00Z
TLE epoch observation values (Epoch: 2026-05-03T06:00:02.998Z)
Latitude
34.06309°
Longitude
-175.11737°
Altitude
338.427 km
Speed
7.711 km/s
True Right ascension
09h 04m 12s
True Declination
33° 53' 37"
Sunlit
Object was in daylight at epoch
Visualization orbit readout
Latitude
Unknown
Longitude
Unknown
Altitude
Unknown
Speed
Unknown
Apparent Right ascension
Unknown
Apparent Declination
Unknown
Sunlit
N/A
Visualization observer readout
Local Sidereal Time
15:50:13
Azimuth
Unknown
Elevation
Unknown
Doppler factor
Unknown
Orbital elements
Apogee altitude
341.043 km
Perigee altitude
335.7 km
Semi-major axis
6,716.508 km
Eccentricity
0.0004
Inclination
53.0409°
RAAN
346.4403°
Arg. of periapsis
175.5021°
True anomaly
320.1572°
Mean anomaly
320.1864°
Eccentric anomaly
320.1718°
Mean motion
3.94301 °/min
Orbital period
91.3 mins
BSTAR
0.00058563
Loading maneuver chart data...
Computing Atmospheric mass density...
Loading historical data...
Loading historical data...
Loading historical data...
Loading historical data...
Loading historical data...
Loading historical data...
Loading historical data...

Documentation

Showing up to 5 results
|